{"data":{"norad_id":61622,"intl_designator":"2024-191B","name":"STARLINK-32364","alt_names":[],"object_type":"PAYLOAD","status":"ACTIVE","operator":null,"country":"US","launch_date":"2024-10-23","launch_site_code":"AFETR","launch_vehicle":null,"mission":null,"orbit_class":"UNKNOWN","rcs_meters":null,"size_class":null,"mass_kg":null,"dimensions":null,"purposes":["comms"],"wikipedia_slug":null,"has_3d_model":false,"image_url":null,"decayed_at":null,"tle_current":{"epoch":"2026-05-24T20:05:47.716512Z","epoch_age_seconds":95907,"freshness":"FRESH","line1":"1 61622U 24191B   26144.83735783  .00000678  00000+0  34177-4 0  9991","line2":"2 61622  43.0029  84.3372 0001190 272.2104  87.8611 15.27577034 89181","mean_motion":15.27577034,"eccentricity":0.000119,"inclination_deg":43.0029,"raan_deg":84.3372,"arg_perigee_deg":272.2104,"mean_anomaly_deg":87.8611,"bstar":3.4177e-5,"rev_number":8918,"period_min":94.266931745453,"perigee_km":482.24149512273,"apogee_km":483.87445952734,"semimajor_km":6861.194977325,"source":"CELESTRAK","updated_at":"2026-05-25T13:38:19.406464Z"}}}